Regional Weather Roundup
Issued by NWS

Home | Current Version | Previous Version | Graphics & Text | Print | Product List | Glossary On
Versions: 1 2 3 4 5 6 7 8 9 10 11 12 13 14 15 16 17 18 19 20 21 22 23 24 25 26 27 28 29 30 31 32 33 34 35 36 37 38 39 40 41 42 43 44 45 46 47 48 49 50
000
ASUS43 KLOT 231410
RWRIL

ILLINOIS REGIONAL WEATHER ROUNDUP
NATIONAL WEATHER SERVICE CHICAGO/ROMEOVILLE IL
900 AM CDT WED APR 23 2014

NOTE: "FAIR" INDICATES FEW OR NO CLOUDS BELOW 12,000 FEET WITH NO
SIGNIFICANT WEATHER AND/OR OBSTRUCTIONS TO VISIBILITY.

* THESE STATIONS ARE NOT UNDER NWS QUALITY CONTROL. THEY ALSO MAY NOT
  REPORT WEATHER SUCH AS PRECIPITATION OR FOG.

ILZ001-002-007-009-015-016-024-231500-
NORTHWEST ILLINOIS

CITY           SKY/WX    TMP DP  RH WIND       PRES   REMARKS
MOLINE         MOSUNNY   45  31  58 E12       30.17R
STERLING*      PTSUNNY   43  30  61 E8        30.17F
SAVANNA*       PTSUNNY   44  31  61 E7        30.19R
$$

ILZ003-004-008-010-011-017-018-231500-
NORTH CENTRAL ILLINOIS

CITY           SKY/WX    TMP DP  RH WIND       PRES   REMARKS
ROCKFORD       MOSUNNY   43  27  53 E10       30.19F
FREEPORT*      MOSUNNY   38  29  69 E8        30.19F WCI  33
ROCHELLE*      SUNNY     42  30  63 E10       30.17F
DE KALB*       SUNNY     40  29  65 E10       30.18S
PERU*          MOSUNNY   42  32  68 E7        30.18S
$$

ILZ005-006-012>014-019>023-231500-
NORTHEAST ILLINOIS

CITY           SKY/WX    TMP DP  RH WIND       PRES   REMARKS
CHICAGO-OHARE  MOSUNNY   42  25  50 NE15      30.18R
CHICAGO-MIDWAY MOSUNNY   42  28  57 NE13      30.18R
AURORA         SUNNY     42  28  57 NE8       30.18R
LANSING*       MOSUNNY   41  29  61 NE14      30.18R
JOLIET*        SUNNY     42  28  57 NE9       30.19R
WAUKEGAN       SUNNY     39  26  59 N9        30.18R WCI  33
DUPAGE AIRPORT SUNNY     41  28  60 NE14G21   30.17R
KANKAKEE*      SUNNY     42  31  64 NE14      30.18R
WHEELING       SUNNY     41  27  57 NE10      30.20R
MORRIS*        SUNNY     43  28  54 NE8       30.18S
ROMEOVILLE*    SUNNY     42  27  55 NE14      30.17S
NORTHERLY ISL    N/A     39  30  70 MISG        N/A
$$

LMZ740>746-231500-
SOUTHERN LAKE MICHIGAN

STATION/POSITION SKY/WX   TEMP    WIND        PRES    VSBY  WAVE
                          AIR SEA DIR/SP/G                  HT/PER
                          (F)     (DEG/KT/KT) (MB)    (MI)  (FT/S)
WAUKEGAN HARBOR            37      30/ 12/ 15 1023.4R
HARRISON CRIB              36      20/ 12/ 15   N/A
BURNHAM HARBOR             40      10/ 10/ 15   N/A
CALUMET HARBOR             38     360/ 10/ 13 1022.8S
MICHIGAN CITY              37      10/ 14/ 17   N/A
$$

ILZ025>027-034>036-040-047-049-050-058-095>099-231500-
WEST-CENTRAL ILLINOIS

CITY           SKY/WX    TMP DP  RH WIND       PRES   REMARKS
QUINCY         MOSUNNY   48  32  53 SE15      30.12F
GALESBURG*     MOSUNNY   46  32  58 E9        30.16R
MACOMB*        MOSUNNY   46  31  56 SE16      30.19S
JACKSONVILLE*  MOSUNNY   47  31  53 E12       30.18R
PITTSFIELD*    SUNNY     49  31  49 E12       30.15F
$$

ILZ028>032-037-038-041>044-048-051>054-059>061-231500-
CENTRAL ILLINOIS

CITY           SKY/WX    TMP DP  RH WIND       PRES   REMARKS
PONTIAC        SUNNY     43  30  61 E3        30.18R
BLOOMINGTON    SUNNY     41  29  62 E16       30.17F
DECATUR        SUNNY     46  30  53 E9        30.18R
PEORIA         SUNNY     46  29  51 E9        30.17S
LACON*         MOSUNNY   43  32  64 E8        30.17S
LINCOLN*       SUNNY     47  31  53 E9        30.17F
SPRINGFIELD    SUNNY     48  30  49 E13       30.17F
TAYLORVILLE    SUNNY     45  30  57 E13       30.17R
$$

ILZ033-039-045-046-055>057-062-063-231500-
EAST-CENTRAL ILLINOIS

CITY           SKY/WX    TMP DP  RH WIND       PRES   REMARKS
CHAMPAIGN      SUNNY     45  29  53 NE17      30.16R
RANTOUL*       SUNNY     43  29  58 NE13G18   30.17R
MATTOON        SUNNY     45  29  53 E15       30.14S
PARIS*         SUNNY     44  31  60 NE9       30.16R
$$

ILZ079-100>102-231500-
SOUTHWEST ILLINOIS

CITY           SKY/WX    TMP DP  RH WIND       PRES   REMARKS
ALTON          SUNNY     48  32  53 E13       30.15R
BELLEVILLE     SUNNY     52  39  61 E10       30.13S
CAHOKIA*       SUNNY     52  40  63 E14       30.13R
SPARTA*        SUNNY     50  37  62 E10       30.13R
$$

ILZ064>066-069>071-074>076-080>082-084>086-088>090-092>094-231500-
SOUTH-CENTRAL ILLINOIS

CITY           SKY/WX    TMP DP  RH WIND       PRES   REMARKS
CARBONDALE     SUNNY     53  38  56 E14       30.11S
CAIRO*         SUNNY     58  41  52 NE10      30.10S
MARION         MOSUNNY   55  37  50 E9G16     30.13R
MT. VERNON     SUNNY     52  30  43 NE12      30.15R
CENTRALIA*       N/A     50  32  50 CALM      30.13S
SALEM*         SUNNY     50  35  57 E8        30.15R
METROPOLIS*    SUNNY     56  33  43 E7        30.11R
$$

ILZ067-068-072-073-078-083-087-091-231500-
SOUTHEAST ILLINOIS

CITY           SKY/WX    TMP DP  RH WIND       PRES   REMARKS
FLORA*           N/A     48  31  51 NE10      30.16
FAIRFIELD*     SUNNY     52  36  54 NE9       30.15R
HARRISBURG*    SUNNY     52  36  53 E13       30.16R
ROBINSON*      SUNNY     48  33  55 NE9       30.17R
CARMI*         SUNNY     52  35  52 NE12      30.14R
$$

ABBREVIATIONS USED IN REMARKS
   TC - TEMPERATURE IN CELSIUS
  WCI - WIND CHILL INDEX
   HX - HEAT INDEX
  VSB - VISIBILITY
$$




USA.gov is the U.S. government's official web portal to all federal, state and local government web resources and services.